Weather History for Watertown, SD

Change the Weather History Date:

Saturday, March 9, 2013

  Actual Average Record
Temperature  
Mean Temperature 30 °F 26 °F  
Max Temperature 33 °F 35 °F 59 °F (1911)
Min Temperature 26 °F 17 °F -13 °F (1948)
Degree Days  
Heating Degree Days 35 39  
Month to date heating degree days 391 364  
Since 1 July heating degree days 6754 6775  
Cooling Degree Days 0 0  
Month to date cooling degree days 0 0  
Year to date cooling degree days 0 0  
Moisture  
Dew Point 29 °F    
Average Humidity 96    
Maximum Humidity 100    
Minimum Humidity 92    
Precipitation  
Precipitation 0.39 in 0.03 in 0.78 in (1918)
Month to date precipitation 0.79 0.26  
Year to date precipitation 2.01 1.34  
Snow  
Snow 0.00 in - - ()
Month to date snowfall T  
Since 1 July snowfall 24.1  
Snow Depth 0.00 in    
Sea Level Pressure  
Sea Level Pressure 29.80 in    
Wind  
Wind Speed 13 mph (NNE)    
Max Wind Speed 30 mph    
Max Gust Speed 33 mph    
Visibility 2 miles    
Events Fog , Rain , Snow    
T = Trace of Precipitation, MM = Missing Value Source: NWS Daily Summary

Daily Weather History Graph

Daily Weather History Graph

Search for Another Location

Airport:

Trip Planner

Search our weather history database for the weather conditions in past years. The results will help you decide how hot, cold, wet, or windy it might be!

Date:

Astronomy

Mar. 09, 2013 Rise Set
Actual Time 6:51 AM CST 6:27 PM CST
Civil Twilight 6:22 AM CST 6:56 PM CST
Nautical Twilight 5:48 AM CST 7:30 PM CST
Astronomical Twilight 5:14 AM CST 8:04 PM CST
Moon 5:20 AM CST (3/9) 4:27 PM CST (3/9)
Length of Visible Light 12h 34m
Length of Day
11h 35m
Waning Crescent, 5% of the Moon is Illuminated
Mar 9
Waning Crescent
Mar 11
New
Mar 19
First Quarter
Mar 27
Full
Apr 2
Last Quarter

Hourly Weather History & Observations

Time (CST) Temp. Windchill Dew Point Humidity Pressure Visibility Wind Dir Wind Speed Gust Speed Precip Events Conditions
12:11 AM 32.0 °F 24.2 °F 30.2 °F 93% 29.89 in 3.0 mi SE 9.2 mph - 0.00 in   Overcast
12:53 AM 32.0 °F 25.6 °F 30.9 °F 96% 29.94 in 3.0 mi SE 6.9 mph - 0.00 in   Overcast
1:00 AM 32.0 °F 26.4 °F 32.0 °F 100% 29.87 in 2.5 mi SE 5.8 mph - N/A   Overcast
1:22 AM 33.8 °F 27.0 °F 32.0 °F 93% 29.87 in 2.5 mi SE 8.1 mph - N/A   Overcast
1:32 AM 33.8 °F 27.7 °F 32.0 °F 93% 29.87 in 2.5 mi SE 6.9 mph - N/A   Overcast
1:53 AM 33.1 °F 26.1 °F 32.0 °F 96% 29.92 in 2.5 mi SE 8.1 mph - N/A   Overcast
2:22 AM 33.8 °F 30.8 °F 32.0 °F 93% 29.85 in 1.8 mi ESE 3.5 mph - 0.01 in   Overcast
2:43 AM 33.8 °F 30.8 °F 33.8 °F 100% 29.84 in 1.5 mi NE 3.5 mph - 0.02 in   Overcast
2:53 AM 32.0 °F 27.5 °F 32.0 °F 100% 29.90 in 1.5 mi NNE 4.6 mph - 0.02 in   Overcast
3:12 AM 32.0 °F 26.4 °F 32.0 °F 100% 29.83 in 1.2 mi NE 5.8 mph - 0.01 in   Overcast
3:33 AM 32.0 °F 26.4 °F 32.0 °F 100% 29.81 in 1.5 mi ENE 5.8 mph - 0.02 in   Overcast
3:48 AM 32.0 °F 27.5 °F 32.0 °F 100% 29.80 in 2.0 mi ENE 4.6 mph - 0.02 in   Overcast
3:53 AM 32.0 °F 27.5 °F 32.0 °F 100% 29.86 in 2.0 mi East 4.6 mph - 0.02 in   Overcast
4:53 AM 32.0 °F 28.7 °F 32.0 °F 100% 29.86 in 2.0 mi ESE 3.5 mph - N/A   Overcast
5:46 AM 32.0 °F 26.4 °F 32.0 °F 100% 29.78 in 2.5 mi SE 5.8 mph - N/A   Overcast
5:53 AM 32.0 °F 27.5 °F 32.0 °F 100% 29.84 in 2.5 mi SE 4.6 mph - N/A   Overcast
6:25 AM 32.0 °F 27.5 °F 32.0 °F 100% 29.77 in 3.0 mi SE 4.6 mph - N/A   Overcast
6:53 AM 32.0 °F 28.7 °F 32.0 °F 100% 29.83 in 5.0 mi ESE 3.5 mph - N/A   Overcast
7:42 AM 32.0 °F 28.7 °F 32.0 °F 100% 29.74 in 2.0 mi North 3.5 mph - N/A   Overcast
7:53 AM 32.0 °F 26.4 °F 32.0 °F 100% 29.80 in 2.0 mi North 5.8 mph - N/A   Overcast
8:53 AM 32.0 °F 25.6 °F 32.0 °F 100% 29.78 in 2.0 mi NNE 6.9 mph - N/A   Overcast
9:04 AM 32.0 °F 23.6 °F 30.2 °F 93% 29.72 in 1.8 mi NNE 10.4 mph - 0.00 in   Overcast
9:53 AM 32.0 °F 26.4 °F 30.9 °F 96% 29.79 in 1.8 mi ENE 5.8 mph - 0.02 in   Overcast
10:26 AM 30.2 °F 21.9 °F 30.2 °F 100% 29.72 in 2.0 mi NE 9.2 mph - 0.04 in Rain Light Freezing Rain
10:41 AM 30.2 °F 22.6 °F 30.2 °F 100% 29.73 in 2.5 mi NNE 8.1 mph - 0.06 in Rain Light Freezing Rain
10:53 AM 30.9 °F 21.7 °F 30.0 °F 96% 29.78 in 2.0 mi NE 11.5 mph - 0.09 in Rain Light Freezing Rain
11:00 AM 30.2 °F 21.9 °F 30.2 °F 100% 29.72 in 2.5 mi NNE 9.2 mph - 0.01 in Rain Light Freezing Rain
11:31 AM 32.0 °F 23.6 °F 30.2 °F 93% 29.71 in 3.0 mi NNE 10.4 mph - 0.07 in Rain Light Freezing Rain
11:53 AM 32.0 °F 24.8 °F 30.9 °F 96% 29.78 in 4.0 mi North 8.1 mph - 0.09 in Rain Light Freezing Rain
12:02 PM 32.0 °F 23.6 °F 30.2 °F 93% 29.71 in 2.5 mi NNE 10.4 mph - 0.00 in Snow Light Snow
12:06 PM 32.0 °F 22.1 °F 30.2 °F 93% 29.71 in 1.2 mi NNE 13.8 mph - 0.01 in Snow Light Snow
12:15 PM 32.0 °F 22.1 °F 30.2 °F 93% 29.70 in 0.8 mi North 13.8 mph - 0.02 in Snow Light Snow
12:22 PM 32.0 °F 22.5 °F 30.2 °F 93% 29.71 in 1.5 mi North 12.7 mph - 0.02 in Snow Light Snow
12:29 PM 32.0 °F 21.6 °F 30.2 °F 93% 29.70 in 2.5 mi North 15.0 mph - 0.02 in Snow Light Snow
12:36 PM 30.2 °F 19.3 °F 30.2 °F 100% 29.70 in 1.2 mi North 15.0 mph - 0.03 in Snow Light Snow
12:44 PM 30.2 °F 19.8 °F 30.2 °F 100% 29.70 in 0.2 mi North 13.8 mph - 0.04 in Fog , Snow Heavy Snow
12:53 PM 30.9 °F 21.2 °F 30.0 °F 96% 29.77 in 0.2 mi North 12.7 mph - 0.05 in Fog , Snow Heavy Snow
1:18 PM 30.2 °F 20.8 °F 30.2 °F 100% 29.70 in 0.5 mi NNE 11.5 mph - 0.03 in Fog , Snow Snow
1:31 PM 30.2 °F 21.9 °F 30.2 °F 100% 29.70 in 0.5 mi NNE 9.2 mph - 0.05 in Fog , Snow Snow
1:53 PM 30.9 °F 20.7 °F 30.0 °F 96% 29.76 in 0.5 mi North 13.8 mph - 0.07 in Fog , Snow Snow
2:12 PM 30.2 °F 20.2 °F 28.4 °F 93% 29.70 in 0.5 mi North 12.7 mph - 0.01 in Fog , Snow Snow
2:39 PM 30.2 °F 18.1 °F 28.4 °F 93% 29.69 in 0.8 mi North 18.4 mph - 0.03 in Snow Light Snow
2:53 PM 30.0 °F 18.7 °F 28.9 °F 96% 29.75 in 1.0 mi North 16.1 mph - 0.03 in Snow Light Snow
3:10 PM 30.2 °F 18.1 °F 28.4 °F 93% 29.69 in 0.8 mi North 18.4 mph - 0.00 in Snow Light Snow
3:39 PM 28.4 °F 15.4 °F 26.6 °F 93% 29.70 in 1.0 mi North 19.6 mph - 0.00 in Snow Light Snow
3:53 PM 28.0 °F 15.7 °F 26.1 °F 92% 29.78 in 1.2 mi North 17.3 mph - 0.00 in Snow Light Snow
4:20 PM 26.6 °F 13.1 °F 24.8 °F 93% 29.72 in 0.8 mi North 19.6 mph - 0.00 in Snow Light Snow
4:32 PM 26.6 °F 13.4 °F 24.8 °F 93% 29.73 in 1.2 mi North 18.4 mph - 0.00 in Snow Light Snow
4:53 PM 27.0 °F 13.5 °F 25.0 °F 92% 29.80 in 1.2 mi North 19.6 mph - 0.00 in Snow Light Snow
5:25 PM 26.6 °F 12.7 °F 24.8 °F 93% 29.75 in 0.8 mi North 20.7 mph - 0.00 in Snow Light Snow
5:53 PM 27.0 °F 12.8 °F 25.0 °F 92% 29.83 in 0.8 mi North 21.9 mph - 0.00 in Snow Light Snow
6:01 PM 26.6 °F 13.1 °F 24.8 °F 93% 29.77 in 1.0 mi North 19.6 mph - 0.00 in Snow Light Snow
6:37 PM 26.6 °F 13.4 °F 24.8 °F 93% 29.80 in 2.0 mi North 18.4 mph - 0.00 in   Overcast
6:49 PM 26.6 °F 13.1 °F 24.8 °F 93% 29.81 in 2.0 mi North 19.6 mph - 0.00 in   Overcast
6:53 PM 27.0 °F 12.8 °F 25.0 °F 92% 29.87 in 2.0 mi North 21.9 mph - 0.00 in   Overcast
7:11 PM 26.6 °F 12.7 °F 24.8 °F 93% 29.82 in 2.5 mi North 20.7 mph - 0.00 in Snow Light Snow
7:41 PM 26.6 °F 12.4 °F 24.8 °F 93% 29.82 in 1.8 mi North 21.9 mph - 0.00 in Snow Light Snow
7:53 PM 27.0 °F 13.5 °F 25.0 °F 92% 29.88 in 1.8 mi North 19.6 mph - 0.00 in Snow Light Snow
8:00 PM 26.6 °F 13.8 °F 24.8 °F 93% 29.83 in 2.0 mi North 17.3 mph - 0.00 in Snow Light Snow
8:21 PM 28.4 °F 16.2 °F 26.6 °F 93% 29.84 in 2.0 mi North 17.3 mph - 0.00 in Snow Light Snow
8:53 PM 28.0 °F 14.3 °F 26.1 °F 92% 29.92 in 3.0 mi North 21.9 mph - 0.00 in Snow Light Snow
9:16 PM 26.6 °F 12.7 °F 24.8 °F 93% 29.87 in 5.0 mi North 20.7 mph 28.8 mph 0.00 in Snow Light Snow
9:51 PM 26.6 °F 11.4 °F 24.8 °F 93% 29.87 in 5.0 mi North 25.3 mph 31.1 mph 0.00 in Snow Light Snow
9:53 PM 27.0 °F 12.5 °F 25.0 °F 92% 29.94 in 5.0 mi North 23.0 mph - 0.00 in Snow Light Snow
10:53 PM 26.1 °F 11.3 °F 25.0 °F 96% 29.97 in 5.0 mi North 23.0 mph - 0.00 in Snow Light Snow
11:53 PM 26.1 °F 10.7 °F 24.1 °F 92% 29.96 in 5.0 mi North 25.3 mph 31.1 mph 0.00 in Snow Light Snow